Location: Le Petit-Vavre
(46.5081°N, 1.5239°E)
Time: 21:34:32
(UTC+00:00)

CSL-04 Rocket - Pass Details

Date: 03 March 2021
Orbit: 805 x 860 km, 98.9° (Epoch: 21 April)

Event Time Altitude Azimuth Distance (km) Brightness Sun altitude
Rises 18:21:58 0° 146° (SE) 3,425 6.5 -7.5°
Reaches altitude 10° 18:24:25 10° 141° (SE) 2,491 5.8 -7.9°
Maximum altitude 18:29:42 48° 68° (ENE) 1,105 4.0 -8.8°
Drops below altitude 10° 18:34:59 10° 356° (N) 2,485 6.2 -9.8°
Sets 18:37:25 0° 351° (N) 3,418 7.0 -10.2°
